JAL2465 RJOO-RJKA

Flight info

Callsign JAL2465
Flight time 1h 23m
Altitude 30000
Route TIGER MAIKO AWAJI Y232 KRE SUKMO Y50 DONKY Y75 ALTAI Y758 TUMGI
Aircraft B738/M-SDE2E3FGHIRWXY/LB1

Departure

Time 2026-05-06 12:59
Airport Osaka Itami International Airport (RJOO)

Arrival

Time 2026-05-06 14:23
Airport Amami Airport (RJKA)
Time Latitude Longitude Altitude Speed Heading
2026-05-06 12:39 34.79269 135.43709 47 ft 0 kts 161°
2026-05-06 12:53 34.79270 135.43708 47 ft 2 kts 161°
2026-05-06 12:53 34.79286 135.43702 47 ft 3 kts 179°
2026-05-06 12:54 34.79294 135.43704 47 ft 4 kts 200°
2026-05-06 12:54 34.79313 135.43707 45 ft 4 kts 175°
2026-05-06 12:54 34.79338 135.43703 47 ft 4 kts 191°
2026-05-06 12:54 34.79346 135.43706 47 ft 0 kts 234°
2026-05-06 12:56 34.79343 135.43701 47 ft 6 kts 234°
2026-05-06 12:56 34.79312 135.43607 46 ft 18 kts 256°
2026-05-06 12:57 34.79282 135.43450 46 ft 19 kts 261°
2026-05-06 12:57 34.79321 135.43308 47 ft 18 kts 311°
2026-05-06 12:57 34.79380 135.43181 47 ft 18 kts 259°
2026-05-06 12:57 34.79310 135.43067 48 ft 10 kts 229°
2026-05-06 12:58 34.79261 135.43005 47 ft 10 kts 225°
2026-05-06 12:58 34.79208 135.42941 48 ft 12 kts 223°
2026-05-06 12:58 34.79120 135.42919 48 ft 18 kts 161°
2026-05-06 12:58 34.78901 135.43144 50 ft 80 kts 135°
2026-05-06 12:59 34.78323 135.43850 49 ft 151 kts 133°
2026-05-06 12:59 34.77502 135.44860 484 ft 174 kts 136°
2026-05-06 12:59 34.76552 135.45737 1454 ft 174 kts 159°
2026-05-06 12:59 34.75299 135.45721 2002 ft 200 kts 204°
2026-05-06 13:00 34.74176 135.44624 2245 ft 222 kts 224°
2026-05-06 13:00 34.73008 135.43231 2539 ft 238 kts 223°
2026-05-06 13:00 34.71800 135.41835 2843 ft 258 kts 222°
2026-05-06 13:00 34.70458 135.40328 3533 ft 263 kts 221°
2026-05-06 13:01 34.69113 135.38841 4291 ft 265 kts 221°
2026-05-06 13:01 34.67736 135.37322 5104 ft 266 kts 221°
2026-05-06 13:01 34.66609 135.35561 5864 ft 269 kts 246°
2026-05-06 13:01 34.66000 135.33390 6612 ft 270 kts 251°
2026-05-06 13:02 34.65545 135.31187 7281 ft 275 kts 265°
2026-05-06 13:02 34.65771 135.28853 7950 ft 280 kts 282°
2026-05-06 13:02 34.66232 135.26559 8648 ft 282 kts 282°
2026-05-06 13:02 34.66699 135.24215 9305 ft 286 kts 282°
2026-05-06 13:03 34.67156 135.21879 9986 ft 287 kts 281°
2026-05-06 13:03 34.67614 135.19467 10444 ft 299 kts 278°
2026-05-06 13:03 34.67662 135.16862 10586 ft 317 kts 261°
2026-05-06 13:03 34.66998 135.14266 10748 ft 334 kts 244°
2026-05-06 13:04 34.65959 135.11668 11031 ft 346 kts 243°
2026-05-06 13:04 34.64878 135.09058 11603 ft 350 kts 243°
2026-05-06 13:04 34.63791 135.06399 12283 ft 351 kts 243°
2026-05-06 13:04 34.62707 135.03711 12971 ft 352 kts 244°
2026-05-06 13:05 34.61616 135.01067 13592 ft 354 kts 239°
2026-05-06 13:05 34.60030 134.98752 14196 ft 359 kts 221°
2026-05-06 13:05 34.58030 134.96960 14810 ft 362 kts 217°
2026-05-06 13:05 34.55922 134.95220 15392 ft 366 kts 216°
2026-05-06 13:06 34.53813 134.93507 16010 ft 369 kts 216°
2026-05-06 13:06 34.51661 134.91751 16557 ft 373 kts 217°
2026-05-06 13:06 34.49518 134.89989 17112 ft 376 kts 217°
2026-05-06 13:06 34.47342 134.88187 17654 ft 379 kts 217°
2026-05-06 13:07 34.45168 134.86382 18176 ft 382 kts 218°
2026-05-06 13:07 34.42947 134.84533 18696 ft 384 kts 218°
2026-05-06 13:07 34.40759 134.82710 19271 ft 384 kts 218°
2026-05-06 13:07 34.38540 134.80861 19809 ft 386 kts 218°
2026-05-06 13:08 34.36342 134.79031 20340 ft 387 kts 218°
2026-05-06 13:08 34.34112 134.77176 20887 ft 387 kts 217°
2026-05-06 13:08 34.31906 134.75343 21371 ft 388 kts 217°
2026-05-06 13:08 34.29655 134.73474 21836 ft 389 kts 217°
2026-05-06 13:09 34.27488 134.71558 22273 ft 388 kts 222°
2026-05-06 13:09 34.25542 134.69281 22685 ft 388 kts 231°
2026-05-06 13:09 34.23824 134.66808 23141 ft 388 kts 231°
2026-05-06 13:09 34.22093 134.64290 23590 ft 388 kts 231°
2026-05-06 13:10 34.20356 134.61766 23999 ft 389 kts 231°
2026-05-06 13:10 34.18633 134.59272 24357 ft 390 kts 231°
2026-05-06 13:10 34.16886 134.56754 24818 ft 389 kts 231°
2026-05-06 13:10 34.15162 134.54279 25171 ft 390 kts 231°
2026-05-06 13:11 34.13393 134.51744 25439 ft 393 kts 231°
2026-05-06 13:11 34.11644 134.49242 25765 ft 394 kts 231°
2026-05-06 13:11 34.09885 134.46727 26097 ft 394 kts 231°
2026-05-06 13:11 34.08107 134.44189 26423 ft 395 kts 231°
2026-05-06 13:12 34.06345 134.41675 26725 ft 395 kts 231°
2026-05-06 13:12 34.04559 134.39131 27004 ft 396 kts 231°
2026-05-06 13:12 34.02773 134.36585 27254 ft 397 kts 231°
2026-05-06 13:12 34.01000 134.34058 27495 ft 398 kts 231°
2026-05-06 13:13 33.99211 134.31510 27790 ft 397 kts 231°
2026-05-06 13:13 33.97417 134.28961 28069 ft 397 kts 232°
2026-05-06 13:13 33.95635 134.26429 28249 ft 399 kts 231°
2026-05-06 13:13 33.93853 134.23896 28544 ft 399 kts 231°
2026-05-06 13:14 33.92045 134.21330 28875 ft 398 kts 231°
2026-05-06 13:14 33.90274 134.18820 29294 ft 394 kts 231°
2026-05-06 13:14 33.88497 134.16302 29784 ft 390 kts 231°
2026-05-06 13:14 33.86752 134.13833 30171 ft 388 kts 231°
2026-05-06 13:15 33.84997 134.11352 30414 ft 389 kts 231°
2026-05-06 13:15 33.83256 134.08890 30663 ft 389 kts 231°
2026-05-06 13:15 33.81502 134.06411 31035 ft 387 kts 231°
2026-05-06 13:15 33.79771 134.03968 31327 ft 386 kts 231°
2026-05-06 13:16 33.78592 134.02306 31505 ft 387 kts 231°
2026-05-06 13:16 33.76859 133.99863 31689 ft 388 kts 231°
2026-05-06 13:16 33.75095 133.97379 31935 ft 388 kts 231°
2026-05-06 13:16 33.73365 133.94939 32112 ft 388 kts 231°
2026-05-06 13:17 33.71031 133.91651 32131 ft 388 kts 231°
2026-05-06 13:17 33.68105 133.87539 32120 ft 385 kts 231°
2026-05-06 13:18 33.64636 133.82667 32130 ft 384 kts 231°
2026-05-06 13:18 33.61161 133.77793 32125 ft 385 kts 231°
2026-05-06 13:19 33.57683 133.72920 32129 ft 385 kts 231°
2026-05-06 13:19 33.54210 133.68039 32126 ft 386 kts 232°
2026-05-06 13:20 33.51075 133.62813 32131 ft 386 kts 235°
2026-05-06 13:20 33.47991 133.57524 32129 ft 387 kts 235°
2026-05-06 13:21 33.44896 133.52249 32132 ft 390 kts 235°
2026-05-06 13:21 33.41757 133.46924 32139 ft 392 kts 235°
2026-05-06 13:22 33.38596 133.41572 32128 ft 394 kts 235°
2026-05-06 13:22 33.35429 133.36214 32126 ft 396 kts 235°
2026-05-06 13:23 33.32237 133.30825 32129 ft 397 kts 234°
2026-05-06 13:23 33.29022 133.25405 32120 ft 398 kts 234°
2026-05-06 13:24 33.25815 133.20005 32113 ft 398 kts 234°
2026-05-06 13:24 33.22637 133.14613 32110 ft 399 kts 235°
2026-05-06 13:25 33.19460 133.09181 32116 ft 399 kts 235°
2026-05-06 13:25 33.16277 133.03751 32133 ft 399 kts 235°
2026-05-06 13:26 33.13087 132.98320 32119 ft 400 kts 234°
2026-05-06 13:26 33.09902 132.92911 32133 ft 399 kts 234°
2026-05-06 13:27 33.06711 132.87499 32123 ft 398 kts 235°
2026-05-06 13:27 33.03514 132.82087 32106 ft 399 kts 235°
2026-05-06 13:28 33.00314 132.76677 32109 ft 399 kts 234°
2026-05-06 13:28 32.97116 132.71280 32120 ft 399 kts 234°
2026-05-06 13:29 32.93913 132.65878 32104 ft 399 kts 234°
2026-05-06 13:29 32.90711 132.60486 32091 ft 400 kts 234°
2026-05-06 13:30 32.87507 132.55096 32093 ft 400 kts 234°
2026-05-06 13:30 32.84299 132.49710 32093 ft 399 kts 234°
2026-05-06 13:31 32.81071 132.44296 32094 ft 399 kts 234°
2026-05-06 13:31 32.77863 132.38924 32093 ft 400 kts 234°
2026-05-06 13:32 32.74650 132.33551 32092 ft 400 kts 234°
2026-05-06 13:32 32.71432 132.28176 32090 ft 400 kts 234°
2026-05-06 13:33 32.68186 132.22764 32093 ft 400 kts 234°
2026-05-06 13:33 32.64407 132.17952 32091 ft 401 kts 221°
2026-05-06 13:34 32.59750 132.14274 32094 ft 404 kts 213°
2026-05-06 13:34 32.54939 132.10913 32092 ft 404 kts 213°
2026-05-06 13:35 32.50110 132.07504 32092 ft 404 kts 213°
2026-05-06 13:35 32.45281 132.04081 32090 ft 405 kts 213°
2026-05-06 13:36 32.40453 132.00665 32093 ft 404 kts 213°
2026-05-06 13:36 32.35600 131.97237 32095 ft 404 kts 213°
2026-05-06 13:37 32.30774 131.93830 32102 ft 404 kts 213°
2026-05-06 13:37 32.25945 131.90425 32099 ft 405 kts 213°
2026-05-06 13:38 32.21132 131.87036 32116 ft 405 kts 213°
2026-05-06 13:38 32.16275 131.83619 32099 ft 404 kts 213°
2026-05-06 13:39 32.11449 131.80230 32095 ft 403 kts 213°
2026-05-06 13:39 32.06640 131.76854 32118 ft 403 kts 213°
2026-05-06 13:40 32.01825 131.73479 32100 ft 403 kts 213°
2026-05-06 13:40 31.97011 131.70108 32099 ft 403 kts 213°
2026-05-06 13:41 31.92187 131.66738 32100 ft 404 kts 213°
2026-05-06 13:41 31.87327 131.63348 32116 ft 404 kts 213°
2026-05-06 13:42 31.82510 131.59988 32099 ft 404 kts 213°
2026-05-06 13:42 31.77663 131.56613 32098 ft 404 kts 213°
2026-05-06 13:43 31.72827 131.53253 32097 ft 404 kts 213°
2026-05-06 13:43 31.67999 131.49899 32100 ft 404 kts 213°
2026-05-06 13:44 31.63164 131.46542 32099 ft 404 kts 213°
2026-05-06 13:44 31.58329 131.43192 32098 ft 404 kts 212°
2026-05-06 13:45 31.53468 131.39829 32117 ft 405 kts 212°
2026-05-06 13:45 31.46201 131.34805 32098 ft 405 kts 212°
2026-05-06 13:46 31.41359 131.31465 32091 ft 404 kts 212°
2026-05-06 13:46 31.36525 131.28132 32102 ft 404 kts 212°
2026-05-06 13:47 31.31655 131.24778 32108 ft 405 kts 212°
2026-05-06 13:47 31.26816 131.21451 32099 ft 405 kts 212°
2026-05-06 13:48 31.21951 131.18110 32090 ft 405 kts 212°
2026-05-06 13:48 31.17076 131.14768 32094 ft 406 kts 212°
2026-05-06 13:49 31.12206 131.11431 32096 ft 407 kts 212°
2026-05-06 13:49 31.07328 131.08093 32092 ft 407 kts 212°
2026-05-06 13:50 31.02444 131.04754 32092 ft 408 kts 212°
2026-05-06 13:50 30.97549 131.01412 32083 ft 408 kts 212°
2026-05-06 13:51 30.92649 130.98070 32083 ft 408 kts 211°
2026-05-06 13:51 30.87760 130.94742 32082 ft 408 kts 211°
2026-05-06 13:52 30.82863 130.91413 32085 ft 408 kts 211°
2026-05-06 13:52 30.77960 130.88081 32081 ft 408 kts 211°
2026-05-06 13:53 30.73075 130.84766 32075 ft 409 kts 211°
2026-05-06 13:53 30.68158 130.81435 32073 ft 409 kts 211°
2026-05-06 13:54 30.63246 130.78109 32072 ft 409 kts 211°
2026-05-06 13:54 30.58333 130.74787 32072 ft 409 kts 211°
2026-05-06 13:55 30.53390 130.71448 32075 ft 409 kts 211°
2026-05-06 13:55 30.48480 130.68135 32075 ft 409 kts 211°
2026-05-06 13:56 30.43559 130.64819 32074 ft 409 kts 211°
2026-05-06 13:56 30.38646 130.61512 32076 ft 409 kts 211°
2026-05-06 13:57 30.33722 130.58202 32071 ft 406 kts 210°
2026-05-06 13:57 30.28894 130.54966 32076 ft 398 kts 210°
2026-05-06 13:58 30.24134 130.51779 31937 ft 396 kts 210°
2026-05-06 13:58 30.21743 130.50179 31587 ft 392 kts 210°
2026-05-06 13:58 30.19417 130.48624 31125 ft 388 kts 210°
2026-05-06 13:59 30.17081 130.47062 30695 ft 384 kts 210°
2026-05-06 13:59 30.14799 130.45538 30259 ft 381 kts 210°
2026-05-06 13:59 30.12500 130.44002 29814 ft 378 kts 210°
2026-05-06 13:59 30.10250 130.42500 29371 ft 375 kts 211°
2026-05-06 14:00 30.08008 130.41003 28917 ft 373 kts 211°
2026-05-06 14:00 30.05757 130.39502 28462 ft 370 kts 211°
2026-05-06 14:00 30.03521 130.38012 28015 ft 368 kts 211°
2026-05-06 14:00 30.01315 130.36573 27562 ft 366 kts 208°
2026-05-06 14:01 29.98962 130.35409 26874 ft 371 kts 201°
2026-05-06 14:01 29.96478 130.34459 26135 ft 377 kts 200°
2026-05-06 14:01 29.94006 130.33543 25605 ft 376 kts 200°
2026-05-06 14:01 29.91504 130.32619 25130 ft 373 kts 201°
2026-05-06 14:02 29.89060 130.31711 24682 ft 370 kts 201°
2026-05-06 14:02 29.86607 130.30792 24238 ft 367 kts 201°
2026-05-06 14:02 29.84205 130.29889 23805 ft 365 kts 201°
2026-05-06 14:02 29.81782 130.28976 23366 ft 362 kts 201°
2026-05-06 14:03 29.79413 130.28081 22940 ft 359 kts 201°
2026-05-06 14:03 29.77058 130.27192 22518 ft 356 kts 201°
2026-05-06 14:03 29.74700 130.26300 22097 ft 354 kts 201°
2026-05-06 14:03 29.72357 130.25414 21673 ft 352 kts 201°
2026-05-06 14:04 29.70041 130.24539 21259 ft 350 kts 201°
2026-05-06 14:04 29.67750 130.23674 20846 ft 347 kts 201°
2026-05-06 14:04 29.65476 130.22816 20433 ft 345 kts 201°
2026-05-06 14:04 29.63182 130.21950 20024 ft 343 kts 201°
2026-05-06 14:05 29.60938 130.21104 19625 ft 341 kts 201°
2026-05-06 14:05 29.59435 130.20537 19354 ft 339 kts 201°
2026-05-06 14:05 29.57180 130.19687 18945 ft 337 kts 201°
2026-05-06 14:05 29.54977 130.18857 18552 ft 335 kts 201°
2026-05-06 14:06 29.52748 130.18018 18152 ft 333 kts 201°
2026-05-06 14:06 29.50568 130.17198 17762 ft 331 kts 201°
2026-05-06 14:06 29.48391 130.16380 17374 ft 329 kts 200°
2026-05-06 14:06 29.46206 130.15558 16965 ft 328 kts 200°
2026-05-06 14:07 29.44063 130.14753 16590 ft 325 kts 200°
2026-05-06 14:07 29.41895 130.13939 16205 ft 323 kts 200°
2026-05-06 14:07 29.39781 130.13144 15822 ft 322 kts 200°
2026-05-06 14:07 29.37649 130.12344 15438 ft 320 kts 200°
2026-05-06 14:08 29.35530 130.11548 15056 ft 319 kts 200°
2026-05-06 14:08 29.33435 130.10762 14673 ft 317 kts 200°
2026-05-06 14:08 29.31366 130.09986 14298 ft 315 kts 200°
2026-05-06 14:08 29.29273 130.09203 13917 ft 313 kts 200°
2026-05-06 14:09 29.27173 130.08417 13279 ft 320 kts 200°
2026-05-06 14:09 29.25078 130.07634 12919 ft 318 kts 200°
2026-05-06 14:09 29.23011 130.06864 12862 ft 305 kts 200°
2026-05-06 14:09 29.21027 130.06124 12610 ft 300 kts 200°
2026-05-06 14:10 29.19035 130.05379 12248 ft 298 kts 200°
2026-05-06 14:10 29.17081 130.04649 11881 ft 298 kts 200°
2026-05-06 14:10 29.15111 130.03914 11626 ft 294 kts 200°
2026-05-06 14:10 29.13195 130.03199 11493 ft 285 kts 200°
2026-05-06 14:11 29.11336 130.02506 11172 ft 283 kts 200°
2026-05-06 14:11 29.09448 130.01801 10787 ft 284 kts 200°
2026-05-06 14:11 29.07582 130.01105 10431 ft 284 kts 199°
2026-05-06 14:11 29.05692 130.00400 10089 ft 284 kts 199°
2026-05-06 14:12 29.03832 129.99708 9736 ft 284 kts 199°
2026-05-06 14:12 29.01940 129.99003 9337 ft 286 kts 199°
2026-05-06 14:12 29.00058 129.98303 8970 ft 287 kts 199°
2026-05-06 14:12 28.98157 129.97596 8663 ft 285 kts 199°
2026-05-06 14:13 28.96268 129.96893 8367 ft 283 kts 199°
2026-05-06 14:13 28.94412 129.96204 8042 ft 283 kts 199°
2026-05-06 14:13 28.92553 129.95513 7735 ft 281 kts 199°
2026-05-06 14:13 28.90688 129.94821 7438 ft 280 kts 199°
2026-05-06 14:14 28.88829 129.94131 7095 ft 280 kts 199°
2026-05-06 14:14 28.86981 129.93444 6655 ft 284 kts 199°
2026-05-06 14:14 28.85082 129.92739 6204 ft 287 kts 199°
2026-05-06 14:14 28.83171 129.92030 5763 ft 290 kts 199°
2026-05-06 14:15 28.81300 129.91336 5647 ft 277 kts 199°
2026-05-06 14:15 28.79510 129.90673 5495 ft 263 kts 199°
2026-05-06 14:15 28.77795 129.90038 5093 ft 260 kts 198°
2026-05-06 14:15 28.76087 129.89369 4781 ft 254 kts 202°
2026-05-06 14:16 28.74490 129.88558 4463 ft 248 kts 206°
2026-05-06 14:16 28.72957 129.87711 4052 ft 248 kts 206°
2026-05-06 14:16 28.71409 129.86851 3684 ft 245 kts 206°
2026-05-06 14:16 28.69913 129.86026 3526 ft 228 kts 206°
2026-05-06 14:17 28.68511 129.85254 3115 ft 225 kts 206°
2026-05-06 14:17 28.67098 129.84475 2692 ft 225 kts 205°
2026-05-06 14:17 28.65706 129.83709 2351 ft 222 kts 205°
2026-05-06 14:17 28.64348 129.82964 2225 ft 208 kts 204°
2026-05-06 14:18 28.63096 129.82276 2109 ft 195 kts 205°
2026-05-06 14:18 28.61891 129.81609 2006 ft 190 kts 205°
2026-05-06 14:18 28.60743 129.80977 1980 ft 178 kts 205°
2026-05-06 14:18 28.59652 129.80376 1974 ft 171 kts 205°
2026-05-06 14:19 28.58595 129.79799 1982 ft 169 kts 205°
2026-05-06 14:19 28.57536 129.79217 1983 ft 168 kts 205°
2026-05-06 14:19 28.56495 129.78646 1989 ft 167 kts 205°
2026-05-06 14:19 28.55443 129.78066 1991 ft 168 kts 205°
2026-05-06 14:20 28.54333 129.77460 2028 ft 183 kts 204°
2026-05-06 14:20 28.53187 129.76825 1996 ft 184 kts 205°
2026-05-06 14:20 28.52011 129.76177 1808 ft 190 kts 204°
2026-05-06 14:20 28.50849 129.75537 1573 ft 182 kts 204°
2026-05-06 14:21 28.49734 129.74928 1330 ft 172 kts 203°
2026-05-06 14:21 28.48681 129.74347 1140 ft 164 kts 204°
2026-05-06 14:21 28.47665 129.73784 935 ft 161 kts 204°
2026-05-06 14:21 28.46596 129.73214 667 ft 172 kts 203°
2026-05-06 14:22 28.45530 129.72643 320 ft 169 kts 205°
2026-05-06 14:22 28.44505 129.72056 85 ft 157 kts 205°
2026-05-06 14:22 28.43614 129.71546 26 ft 131 kts 203°
2026-05-06 14:22 28.43027 129.71232 29 ft 57 kts 205°
2026-05-06 14:23 28.42739 129.71076 32 ft 28 kts 208°
2026-05-06 14:23 28.42703 129.70935 32 ft 12 kts 298°
2026-05-06 14:23 28.42765 129.70890 31 ft 7 kts 12°
2026-05-06 14:23 28.42814 129.70906 31 ft 7 kts 17°
2026-05-06 14:24 28.42860 129.70926 30 ft 7 kts 26°
2026-05-06 14:24 28.42904 129.70951 30 ft 7 kts 26°
2026-05-06 14:24 28.42949 129.70960 30 ft 8 kts 344°
2026-05-06 14:24 28.43000 129.70900 30 ft 13 kts 303°
2026-05-06 14:25 28.43010 129.70882 30 ft 0 kts 301°